Flag for United Kingdom

Past Weather in Chesterfield, England, United Kingdom — Yesterday and Last 2 Weeks

Now
58 °F

Cool.


Feels Like: 57 °F
Forecast: 60 / 54 °F
Wind: 5 mph from West

Location: Nottingham Weather Centre

Current Time: Jul 14, 2020 at 5:06:10 am

Latest Report: Jul 14, 2020 at 4:00 am


Visibility: 34 mi

Pressure: 30.04 "Hg

Humidity: 84%

Dew Point: 53 °F

Location of ChesterfieldLocation

Past Weather in Chesterfield — Graph

°F

Chesterfield Temperature Yesterday

Maximum temperature yesterday: 66 °F (at 12:00 pm)
Minimum temperature yesterday: 57 °F (at 3:00 am)
Average temperature yesterday: 61 °F

High & Low Weather Summary for the Past Weeks

 TemperatureHumidityPressure
High69 °F (Jul 12, 6:00 pm)99% (Jul 8, 2:00 am)30.40 "Hg (Jul 8, 2:00 am)
Low45 °F (Jul 12, 5:00 am)42% (Jul 12, 6:00 pm)29.59 "Hg (Jul 5, 4:00 am)
Average58 °F79%29.94 "Hg
* Reported Jun 29 4:00 am — Jul 14 4:00 am, Chesterfield. Weather by CustomWeather, © 2020

Note: Actual official high and low records may vary slightly from our data, if they occured in-between our weather recording intervals... More about our weather records

Chesterfield Weather History for the Previous 24 Hours

Scroll right to see more
 ConditionsComfort  
Time TempWeatherWind HumidityBarometerVisibility
4:00 am
Tue, Jul 14
58 °FCool.5 mph84%30.04 "Hg34 mi
3:00 am58 °FCool.3 mph82%30.05 "Hg37 mi
2:00 am58 °FCool.5 mph81%30.05 "Hg31 mi
1:00 am59 °FFog.5 mph80%30.05 "Hg3 mi
12:00 am60 °FCool.5 mph77%30.06 "Hg40 mi
11:00 pm
Mon, Jul 13
60 °FCool.5 mph74%30.07 "Hg43 mi
10:00 pm62 °FCool.5 mph77%30.07 "Hg28 mi
9:00 pm63 °FMild.5 mph79%30.07 "Hg28 mi
8:00 pm63 °FMild.8 mph85%30.06 "Hg43 mi
7:00 pm64 °FMild.9 mph82%30.06 "Hg47 mi
6:00 pm64 °FMild.10 mph77%30.08 "Hg43 mi
5:00 pm64 °FMild.9 mph77%30.10 "Hg47 mi
4:00 pm64 °FMild.10 mph76%30.10 "Hg43 mi
3:00 pm64 °FMild.12 mph74%30.13 "Hg40 mi
2:00 pm65 °FMild.12 mph72%30.14 "Hg28 mi
1:00 pm65 °FMild.13 mph68%30.15 "Hg40 mi
12:00 pm66 °FMild.9 mph67%30.17 "Hg47 mi
11:00 am62 °FCool.9 mph69%30.20 "Hg40 mi
10:00 am61 °FCool.9 mph71%30.21 "Hg43 mi
9:00 am60 °FCool.10 mph67%30.21 "Hg47 mi
8:00 am59 °FCool.9 mph64%30.21 "Hg47 mi
7:00 am58 °FCool.7 mph68%30.22 "Hg37 mi
6:00 am57 °FCool.7 mph72%30.23 "Hg37 mi
5:00 am57 °FCool.7 mph73%30.22 "Hg40 mi
Weather by CustomWeather, © 2020

See weather overview